Regional Weather Roundup
Issued by NWS Little Rock, AR

Home | Current Version | Previous Version | Graphics & Text | Print | Product List | Glossary On
Versions: 1 2 3 4 5 6 7 8 9 10 11 12 13 14 15 16 17 18 19 20 21 22 23 24 25 26 27 28 29 30 31 32 33 34 35 36 37 38 39 40 41 42 43 44 45 46 47 48 49 50
941
ASUS44 KLZK 190205
RWRLZK

WEATHER ROUNDUP FOR ARKANSAS
NATIONAL WEATHER SERVICE LITTLE ROCK AR
800 PM CST SUN FEB 18 2018

NOTE: "FAIR" INDICATES FEW OR NO CLOUDS BELOW 12,000 FEET WITH NO
SIGNIFICANT WEATHER AND/OR OBSTRUCTIONS TO VISIBILITY.

ARZ001-003-010-029-190300-
NORTHWEST ARKANSAS

CITY           SKY/WX    TMP DP  RH WIND       PRES   REMARKS
FAYETTEVILLE   CLOUDY    50  49  96 S15       29.90F
FORT SMITH     CLOUDY    50  47  89 E9        29.94F
HARRISON       CLOUDY    46  45  96 S16       29.93F
BENTONVILLE    CLOUDY    51  48  89 S14G20    29.89F
ROGERS         CLOUDY    51  48  89 S16       29.88S
HIGHFILL       CLOUDY    51  48  89 S16       29.88S
SPRINGDALE     CLOUDY    52  52 100 S10G17    29.90S
$$

ARZ004-005-016-190300-
NORTH CENTRAL ARKANSAS

CITY           SKY/WX    TMP DP  RH WIND       PRES   REMARKS
BATESVILLE     LGT RAIN  47  46  97 SE7       30.03F
FLIPPIN        CLOUDY    49  44  83 S8        29.98S
MTN HOME       CLOUDY    48  46  93 S10       29.95F
$$

ARZ040-041-190300-
WEST CENTRAL ARKANSAS

CITY           SKY/WX    TMP DP  RH WIND       PRES   REMARKS
MENA           CLOUDY    52  50  93 CALM      29.98S
MOUNT IDA      CLOUDY    48  48 100 CALM      29.98S FOG
$$

ARZ009-017-025-026-028-190300-
NORTHEAST ARKANSAS

CITY           SKY/WX    TMP DP  RH WIND       PRES   REMARKS
JONESBORO      CLOUDY    51  51 100 S9        30.04F
NEWPORT          N/A     49  49 100 S10       30.05S FOG
WALNUT RIDGE   CLOUDY    50  47  89 S10       30.04S
BLYTHEVILLE    CLOUDY    55  48  77 S9        30.06S
$$

ARZ022-023-033-042-044-190300-
CENTRAL ARKANSAS

CITY           SKY/WX    TMP DP  RH WIND       PRES   REMARKS
LITTLE ROCK    CLOUDY    48  48 100 CALM      30.04R FOG
N LITTLE ROCK    N/A     47  47  99 S6        30.03R
JACKSONVILLE   CLOUDY    49  49 100 SE7       30.03S FOG
SEARCY         CLOUDY    50  50 100 SE5       30.05S
HOT SPRINGS    FOG       48  48 100 E6        30.02S VSB 1/2
RUSSELLVILLE   CLOUDY    47  47 100 E5        30.01R FOG
CLINTON        CLOUDY    46  46 100 CALM      30.04R FOG
$$

ARZ036-190300-
EAST ARKANSAS

CITY           SKY/WX    TMP DP  RH WIND       PRES   REMARKS
WEST MEMPHIS   CLOUDY    53  53 100 S10G18    30.07R
$$

ARZ050-053-066-070-073-190300-
SOUTHWEST ARKANSAS

CITY           SKY/WX    TMP DP  RH WIND       PRES   REMARKS
ARKADELPHIA    FOG       49  49 100 CALM      30.04R VSB 1/2
CAMDEN         CLOUDY    54  52  94 CALM      30.02R FOG
TEXARKANA      CLOUDY    53  52  96 NE5       29.99S
EL DORADO      CLOUDY    57  57 100 SE10      30.00F
DE QUEEN       FOG       48  48 100 E6        29.98S VSB 1
$$

ARZ056-057-069-190300-
SOUTHEAST ARKANSAS

CITY           SKY/WX    TMP DP  RH WIND       PRES   REMARKS
PINE BLUFF     FOG       51  51 100 W3        30.06R VSB 1
STUTTGART      LGT RAIN  51  51 100 SE10      30.04F VSB 1
MONTICELLO     CLOUDY    55  54  96 SE17G24   29.99F

$$






USA.gov is the U.S. government's official web portal to all federal, state and local government web resources and services.